Time,TemperatureF,DewpointF,PressureIn,WindDirection,WindDirectionDegrees,WindSpeedMPH,WindSpeedGustMPH,Humidity,HourlyPrecipIn,Conditions,Clouds,dailyrainin,SolarRadiationWatts/m^2,SoftwareType,DateUTC
2013-02-22 00:01:00,40.0,38.0,-100.00,South,187,1.0,4.0,93,0.00,,,0.11,0.000000,,2013-02-22 08:01:00,
2013-02-22 00:11:00,40.0,38.0,-100.00,South,187,1.0,4.0,93,0.00,,,0.11,0.000000,,2013-02-22 08:11:00,
2013-02-22 00:32:00,41.0,38.0,-100.00,South,186,1.0,10.0,89,0.00,,,0.10,0.000000,,2013-02-22 08:32:00,
2013-02-22 00:42:00,41.0,38.0,-100.00,South,186,1.0,10.0,89,0.00,,,0.10,0.000000,,2013-02-22 08:42:00,
2013-02-22 00:52:00,41.0,38.0,-100.00,South,186,1.0,10.0,89,0.00,,,0.10,0.000000,,2013-02-22 08:52:00,
2013-02-22 01:03:00,41.0,38.0,-100.00,South,186,1.0,10.0,89,0.00,,,0.10,0.000000,,2013-02-22 09:03:00,
2013-02-22 01:11:00,41.0,38.0,-100.00,South,186,1.0,10.0,89,0.00,,,0.10,0.000000,,2013-02-22 09:11:00,
2013-02-22 01:32:00,41.0,38.0,-100.00,South,185,1.0,13.0,88,0.00,,,0.10,0.000000,,2013-02-22 09:32:00,
2013-02-22 01:42:00,41.0,38.0,-100.00,South,185,1.0,13.0,88,0.00,,,0.10,0.000000,,2013-02-22 09:42:00,
2013-02-22 01:52:00,41.0,38.0,-100.00,South,185,1.0,13.0,88,0.00,,,0.10,0.000000,,2013-02-22 09:52:00,
2013-02-22 02:01:00,41.0,38.0,-100.00,South,185,1.0,13.0,88,0.00,,,0.10,0.000000,,2013-02-22 10:01:00,
2013-02-22 02:11:00,41.0,38.0,-100.00,South,185,1.0,13.0,88,0.00,,,0.10,0.000000,,2013-02-22 10:11:00,
2013-02-22 02:42:00,41.0,37.0,-100.00,South,179,1.0,11.0,87,0.00,,,0.10,0.000000,,2013-02-22 10:42:00,
2013-02-22 02:52:00,41.0,37.0,-100.00,South,179,1.0,11.0,87,0.00,,,0.10,0.000000,,2013-02-22 10:52:00,
2013-02-22 03:01:00,41.0,37.0,-100.00,South,179,1.0,11.0,87,0.00,,,0.10,0.000000,,2013-02-22 11:01:00,
2013-02-22 03:11:00,41.0,37.0,-100.00,South,179,1.0,11.0,87,0.00,,,0.10,0.000000,,2013-02-22 11:11:00,
2013-02-22 03:32:00,42.0,38.0,-100.00,South,188,1.0,10.0,86,0.00,,,0.10,0.000000,,2013-02-22 11:32:00,
2013-02-22 03:42:00,42.0,38.0,-100.00,South,188,1.0,10.0,86,0.00,,,0.10,0.000000,,2013-02-22 11:42:00,
2013-02-22 03:52:00,42.0,38.0,-100.00,South,188,1.0,10.0,86,0.00,,,0.10,0.000000,,2013-02-22 11:52:00,
2013-02-22 04:02:00,42.0,38.0,-100.00,South,188,1.0,10.0,86,0.00,,,0.10,0.000000,,2013-02-22 12:02:00,
2013-02-22 04:11:00,42.0,38.0,-100.00,South,188,1.0,10.0,86,0.00,,,0.10,0.000000,,2013-02-22 12:11:00,
2013-02-22 04:32:00,41.0,38.0,-100.00,South,189,1.0,15.0,88,0.00,,,0.10,0.000000,,2013-02-22 12:32:00,
2013-02-22 04:42:00,41.0,38.0,-100.00,South,189,1.0,15.0,88,0.00,,,0.10,0.000000,,2013-02-22 12:42:00,
2013-02-22 04:52:00,41.0,38.0,-100.00,South,189,1.0,15.0,88,0.00,,,0.10,0.000000,,2013-02-22 12:52:00,
2013-02-22 05:01:00,41.0,38.0,-100.00,South,189,1.0,15.0,88,0.00,,,0.10,0.000000,,2013-02-22 13:01:00,
2013-02-22 05:11:00,41.0,38.0,-100.00,South,189,1.0,15.0,88,0.00,,,0.10,0.000000,,2013-02-22 13:11:00,
2013-02-22 05:42:00,42.0,37.0,-100.00,SSW,203,1.0,9.0,83,0.00,,,-99.99,0.000000,,2013-02-22 13:42:00,
2013-02-22 05:52:00,42.0,37.0,-100.00,SSW,203,1.0,9.0,83,0.00,,,-99.99,0.000000,,2013-02-22 13:52:00,
2013-02-22 06:01:00,42.0,37.0,-100.00,SSW,203,1.0,9.0,83,0.00,,,-99.99,0.000000,,2013-02-22 14:01:00,
2013-02-22 06:11:00,42.0,37.0,-100.00,SSW,203,1.0,9.0,83,0.00,,,-99.99,0.000000,,2013-02-22 14:11:00,
2013-02-22 06:32:00,42.0,38.0,-100.00,SSW,193,1.0,9.0,86,0.00,,,-99.99,0.000000,,2013-02-22 14:32:00,
2013-02-22 06:42:00,42.0,38.0,-100.00,SSW,193,1.0,9.0,86,0.00,,,-99.99,0.000000,,2013-02-22 14:42:00,
2013-02-22 06:53:00,42.0,38.0,-100.00,SSW,193,1.0,9.0,86,0.00,,,-99.99,0.000000,,2013-02-22 14:53:00,
2013-02-22 07:01:00,42.0,38.0,-100.00,SSW,193,1.0,9.0,86,0.00,,,-99.99,0.000000,,2013-02-22 15:01:00,
2013-02-22 07:11:00,42.0,38.0,-100.00,SSW,193,1.0,9.0,86,0.00,,,-99.99,0.000000,,2013-02-22 15:11:00,
2013-02-22 07:32:00,42.0,39.0,-100.00,South,191,1.0,18.0,90,0.00,,,0.10,0.000000,,2013-02-22 15:32:00,
2013-02-22 07:42:00,42.0,39.0,-100.00,South,191,1.0,18.0,90,0.00,,,0.10,0.000000,,2013-02-22 15:42:00,
2013-02-22 07:52:00,42.0,39.0,-100.00,South,191,1.0,18.0,90,0.00,,,0.10,0.000000,,2013-02-22 15:52:00,
2013-02-22 08:01:00,42.0,39.0,-100.00,South,191,1.0,18.0,90,0.00,,,0.10,0.000000,,2013-02-22 16:01:00,
2013-02-22 08:11:00,42.0,39.0,-100.00,South,191,1.0,18.0,90,0.00,,,0.10,0.000000,,2013-02-22 16:11:00,
2013-02-22 08:32:00,42.0,40.0,-100.00,South,171,1.0,14.0,91,0.04,,,0.14,15.000000,,2013-02-22 16:32:00,
2013-02-22 08:42:00,42.0,40.0,-100.00,South,171,1.0,14.0,91,0.04,,,0.14,15.000000,,2013-02-22 16:42:00,
2013-02-22 08:52:00,42.0,40.0,-100.00,South,171,1.0,14.0,91,0.04,,,0.14,15.000000,,2013-02-22 16:52:00,
2013-02-22 09:01:00,42.0,40.0,-100.00,South,171,1.0,14.0,91,0.04,,,0.14,15.000000,,2013-02-22 17:01:00,
2013-02-22 09:11:00,42.0,40.0,-100.00,South,171,1.0,14.0,91,0.04,,,0.14,15.000000,,2013-02-22 17:11:00,
2013-02-22 09:42:00,43.0,37.0,-100.00,South,191,2.0,22.0,80,0.01,,,0.14,32.000000,,2013-02-22 17:42:00,
2013-02-22 09:52:00,43.0,37.0,-100.00,South,191,2.0,22.0,80,0.01,,,0.14,32.000000,,2013-02-22 17:52:00,
2013-02-22 10:01:00,43.0,37.0,-100.00,South,191,2.0,22.0,80,0.01,,,0.14,32.000000,,2013-02-22 18:01:00,
2013-02-22 10:11:00,43.0,37.0,-100.00,South,191,2.0,22.0,80,0.01,,,0.14,32.000000,,2013-02-22 18:11:00,
2013-02-22 10:32:00,44.0,37.0,-100.00,South,189,3.0,15.0,75,0.00,,,-99.99,37.000000,,2013-02-22 18:32:00,
2013-02-22 10:42:00,44.0,37.0,-100.00,South,189,3.0,15.0,75,0.00,,,-99.99,37.000000,,2013-02-22 18:42:00,
2013-02-22 10:52:00,44.0,37.0,-100.00,South,189,3.0,15.0,75,0.00,,,-99.99,37.000000,,2013-02-22 18:52:00,
2013-02-22 11:01:00,44.0,37.0,-100.00,South,189,3.0,15.0,75,0.00,,,-99.99,37.000000,,2013-02-22 19:01:00,
2013-02-22 11:11:00,44.0,37.0,-100.00,South,189,3.0,15.0,75,0.00,,,-99.99,37.000000,,2013-02-22 19:11:00,
2013-02-22 11:31:00,42.0,39.0,-100.00,SSW,192,2.0,17.0,88,0.05,,,0.17,40.000000,,2013-02-22 19:31:00,
2013-02-22 11:42:00,42.0,39.0,-100.00,SSW,192,2.0,17.0,88,0.05,,,0.17,40.000000,,2013-02-22 19:42:00,
2013-02-22 11:52:00,42.0,39.0,-100.00,SSW,192,2.0,17.0,88,0.05,,,0.17,40.000000,,2013-02-22 19:52:00,
2013-02-22 12:01:00,42.0,39.0,-100.00,SSW,192,2.0,17.0,88,0.05,,,0.17,40.000000,,2013-02-22 20:01:00,
2013-02-22 12:11:00,42.0,39.0,-100.00,SSW,192,2.0,17.0,88,0.05,,,0.17,40.000000,,2013-02-22 20:11:00,
2013-02-22 12:42:00,42.0,40.0,-100.00,SSW,192,2.0,17.0,91,0.09,,,0.25,44.000000,,2013-02-22 20:42:00,
2013-02-22 12:52:00,42.0,40.0,-100.00,SSW,192,2.0,17.0,91,0.09,,,0.25,44.000000,,2013-02-22 20:52:00,
2013-02-22 13:01:00,42.0,40.0,-100.00,SSW,192,2.0,17.0,91,0.09,,,0.25,44.000000,,2013-02-22 21:01:00,
2013-02-22 13:11:00,42.0,40.0,-100.00,SSW,192,2.0,17.0,91,0.09,,,0.25,44.000000,,2013-02-22 21:11:00,
2013-02-22 13:42:00,42.0,40.0,-100.00,South,187,4.0,21.0,93,0.14,,,0.37,57.000000,,2013-02-22 21:42:00,
2013-02-22 13:52:00,42.0,40.0,-100.00,South,187,4.0,21.0,93,0.14,,,0.37,57.000000,,2013-02-22 21:52:00,
2013-02-22 14:01:00,42.0,40.0,-100.00,South,187,4.0,21.0,93,0.14,,,0.37,57.000000,,2013-02-22 22:01:00,
2013-02-22 14:11:00,42.0,40.0,-100.00,South,187,4.0,21.0,93,0.14,,,0.37,57.000000,,2013-02-22 22:11:00,
2013-02-22 14:42:00,42.0,40.0,-100.00,South,189,2.0,23.0,94,0.17,,,0.51,38.000000,,2013-02-22 22:42:00,
2013-02-22 14:52:00,42.0,40.0,-100.00,South,189,2.0,23.0,94,0.17,,,0.51,38.000000,,2013-02-22 22:52:00,
2013-02-22 15:01:00,42.0,40.0,-100.00,South,189,2.0,23.0,94,0.17,,,0.51,38.000000,,2013-02-22 23:01:00,
2013-02-22 15:11:00,42.0,40.0,-100.00,South,189,2.0,23.0,94,0.17,,,0.51,38.000000,,2013-02-22 23:11:00,
2013-02-22 15:42:00,42.0,40.0,-100.00,South,188,2.0,20.0,94,0.15,,,0.66,49.000000,,2013-02-22 23:42:00,
2013-02-22 15:52:00,42.0,40.0,-100.00,South,188,2.0,20.0,94,0.15,,,0.66,49.000000,,2013-02-22 23:52:00,
2013-02-22 16:01:00,42.0,40.0,-100.00,South,188,2.0,20.0,94,0.15,,,0.66,49.000000,,2013-02-23 00:01:00,
2013-02-22 16:11:00,42.0,40.0,-100.00,South,188,2.0,20.0,94,0.15,,,0.66,49.000000,,2013-02-23 00:11:00,
2013-02-22 16:32:00,42.0,40.0,-100.00,South,189,2.0,19.0,94,0.13,,,0.79,46.000000,,2013-02-23 00:32:00,
2013-02-22 16:42:00,42.0,40.0,-100.00,South,189,2.0,19.0,94,0.13,,,0.79,46.000000,,2013-02-23 00:42:00,
2013-02-22 16:52:00,42.0,40.0,-100.00,South,189,2.0,19.0,94,0.13,,,0.79,46.000000,,2013-02-23 00:52:00,
2013-02-22 17:01:00,42.0,40.0,-100.00,South,189,2.0,19.0,94,0.13,,,0.79,46.000000,,2013-02-23 01:01:00,
2013-02-22 17:11:00,42.0,40.0,-100.00,South,189,2.0,19.0,94,0.13,,,0.79,46.000000,,2013-02-23 01:11:00,
2013-02-22 17:32:00,42.0,40.0,-100.00,SW,236,2.0,18.0,93,0.18,,,0.97,24.000000,,2013-02-23 01:32:00,
2013-02-22 17:42:00,42.0,40.0,-100.00,SW,236,2.0,18.0,93,0.18,,,0.97,24.000000,,2013-02-23 01:42:00,
2013-02-22 17:52:00,42.0,40.0,-100.00,SW,236,2.0,18.0,93,0.18,,,0.97,24.000000,,2013-02-23 01:52:00,
2013-02-22 18:01:00,42.0,40.0,-100.00,SW,236,2.0,18.0,93,0.18,,,0.97,24.000000,,2013-02-23 02:01:00,
2013-02-22 18:11:00,42.0,40.0,-100.00,SW,236,2.0,18.0,93,0.18,,,0.97,24.000000,,2013-02-23 02:11:00,
2013-02-22 18:32:00,42.0,41.0,-100.00,South,175,1.0,13.0,97,0.00,,,0.96,10.000000,,2013-02-23 02:32:00,
2013-02-22 18:42:00,42.0,41.0,-100.00,South,175,1.0,13.0,97,0.00,,,0.96,10.000000,,2013-02-23 02:42:00,
2013-02-22 18:52:00,42.0,41.0,-100.00,South,175,1.0,13.0,97,0.00,,,0.96,10.000000,,2013-02-23 02:52:00,
2013-02-22 19:01:00,42.0,41.0,-100.00,South,175,1.0,13.0,97,0.00,,,0.96,10.000000,,2013-02-23 03:01:00,
2013-02-22 19:11:00,42.0,41.0,-100.00,South,175,1.0,13.0,97,0.00,,,0.96,10.000000,,2013-02-23 03:11:00,
2013-02-22 19:32:00,42.0,40.0,-100.00,WSW,248,3.0,14.0,91,0.04,,,1.00,0.000000,,2013-02-23 03:32:00,
2013-02-22 19:42:00,42.0,40.0,-100.00,WSW,248,3.0,14.0,91,0.04,,,1.00,0.000000,,2013-02-23 03:42:00,
2013-02-22 19:52:00,42.0,40.0,-100.00,WSW,248,3.0,14.0,91,0.04,,,1.00,0.000000,,2013-02-23 03:52:00,
2013-02-22 20:01:00,42.0,40.0,-100.00,WSW,248,3.0,14.0,91,0.04,,,1.00,0.000000,,2013-02-23 04:01:00,
2013-02-22 20:11:00,42.0,40.0,-100.00,WSW,248,3.0,14.0,91,0.04,,,1.00,0.000000,,2013-02-23 04:11:00,
2013-02-22 20:32:00,40.0,39.0,-100.00,SSW,208,0.0,14.0,95,0.02,,,1.02,0.000000,,2013-02-23 04:32:00,
2013-02-22 20:42:00,40.0,39.0,-100.00,SSW,208,0.0,14.0,95,0.02,,,1.02,0.000000,,2013-02-23 04:42:00,
2013-02-22 20:52:00,40.0,39.0,-100.00,SSW,208,0.0,14.0,95,0.02,,,1.02,0.000000,,2013-02-23 04:52:00,
2013-02-22 21:02:00,40.0,39.0,-100.00,SSW,208,0.0,14.0,95,0.02,,,1.02,0.000000,,2013-02-23 05:02:00,
2013-02-22 21:11:00,40.0,39.0,-100.00,SSW,208,0.0,14.0,95,0.02,,,1.02,0.000000,,2013-02-23 05:11:00,
2013-02-22 21:42:00,40.0,37.0,-100.00,SSW,196,1.0,2.0,88,0.00,,,1.02,0.000000,,2013-02-23 05:42:00,
2013-02-22 21:52:00,40.0,37.0,-100.00,SSW,196,1.0,2.0,88,0.00,,,1.02,0.000000,,2013-02-23 05:52:00,
2013-02-22 22:01:00,40.0,37.0,-100.00,SSW,196,1.0,2.0,88,0.00,,,1.02,0.000000,,2013-02-23 06:01:00,
2013-02-22 22:11:00,40.0,37.0,-100.00,SSW,196,1.0,2.0,88,0.00,,,1.02,0.000000,,2013-02-23 06:11:00,
2013-02-22 22:32:00,39.0,36.0,-100.00,SW,221,0.0,1.0,90,0.00,,,1.02,0.000000,,2013-02-23 06:32:00,
2013-02-22 22:42:00,39.0,36.0,-100.00,SW,221,0.0,1.0,90,0.00,,,1.02,0.000000,,2013-02-23 06:42:00,
2013-02-22 22:52:00,39.0,36.0,-100.00,SW,221,0.0,1.0,90,0.00,,,1.02,0.000000,,2013-02-23 06:52:00,
2013-02-22 23:01:00,39.0,36.0,-100.00,SW,221,0.0,1.0,90,0.00,,,1.02,0.000000,,2013-02-23 07:01:00,
2013-02-22 23:11:00,39.0,36.0,-100.00,SW,221,0.0,1.0,90,0.00,,,1.02,0.000000,,2013-02-23 07:11:00,
2013-02-22 23:32:00,38.0,36.0,-100.00,South,189,0.0,11.0,92,0.01,,,1.03,0.000000,,2013-02-23 07:32:00,
2013-02-22 23:42:00,38.0,36.0,-100.00,South,189,0.0,11.0,92,0.01,,,1.03,0.000000,,2013-02-23 07:42:00,
2013-02-22 23:52:00,38.0,36.0,-100.00,South,189,0.0,11.0,92,0.01,,,1.03,0.000000,,2013-02-23 07:52:00,